[[{"header":{"parameterUnit":"m.s-1","parameterCategory":1,"la1":30.2991,"la2":30.254,"lo1":-89.0895,"lo2":-89.0444,"dy":0.0017,"dx":0.0017,"nx":28,"ny":28,"refTime":"2025-05-16T09:00:00:Z","depth":0,"parameterNumber":2,"parameterNumberName":"U-component_of_WINDS"},"data":[0,0,0,0,0,0,0,0,0,0,0,0,0,0,0,0,0,0,0,0,0,0,0,0,0,0,0,0,0,0,0,0,0,0,0,0,0,0,0,0,0,0,0,0,0,0,0,0,0,0,0,0,0,0,0,0,0,0,0.2709,0.271,0,0.2871,0.2873,0.2875,0.2951,0.2951,0.2951,0.295,0.3118,0.3123,0.3127,0,0,0,0,0,0,0,0,0,0,0,0,0,0.2466,0.247,0.2708,0.271,0.2713,0.2871,0.2873,0.2875,0.2951,0.2951,0.295,0.295,0.3117,0.3122,0.3128,0,0,0,0,0,0,0,0,0,0,0,0,0,0.2594,0.2471,0.2708,0.2769,0.2776,0.287,0.2873,0.2876,0.2951,0.2951,0.295,0.295,0.3115,0.3122,0.3128,0.3174,0,0,0.3149,0.3152,0,0,0,0,0,0,0,0,0.2586,0.2603,0.2758,0.2765,0.2773,0.289,0.2849,0.2976,0.2951,0.2885,0.295,0.295,0.3043,0.3055,0.3086,0.3182,0.3189,0.315,0.3154,0.3157,0.3159,0,0,0,0,0,0,0,0.2577,0.2596,0.2773,0.276,0.277,0.2789,0.2807,0.2873,0.2963,0.289,0.2896,0.2914,0.3047,0.3079,0.3091,0.3191,0.315,0.3156,0.316,0.3163,0.3333,0.3333,0,0,0,0,0,0,0.2558,0.2588,0.2768,0.2778,0.2678,0.2794,0.2814,0.2853,0.2962,0.2979,0.2914,0.2917,0.3068,0.3083,0.3097,0.3158,0.3157,0.3163,0.3167,0.3332,0.3333,0.3333,0,0,0,0,0,0,0.2553,0.2574,0.2761,0.2685,0.271,0.2798,0.2841,0.2856,0.2889,0.298,0.2997,0.2931,0.3068,0.3087,0.3154,0.3165,0.3166,0.3173,0.3332,0.3333,0.3333,0.3279,0,0,0,0,0,0,0.2546,0.2571,0.2589,0.2684,0.2714,0.2815,0.2842,0.286,0.2901,0.2906,0.3,0.3016,0.307,0.3143,0.3161,0.3174,0.3178,0.3331,0.3332,0.3333,0.3281,0.3278,0.3276,0,0,0,0,0,0.2537,0.2568,0.2589,0.2611,0.2738,0.2815,0.2832,0.2893,0.2901,0.292,0.2978,0.3013,0.316,0.315,0.317,0.3185,0.3331,0.3332,0.3333,0.3282,0.3279,0.3276,0,0,0,0,0,0,0.2472,0.2581,0.2607,0.2669,0.2732,0.2828,0.2854,0.2888,0.295,0.2953,0.3026,0.3046,0.3107,0.3153,0.3139,0.3235,0.3249,0.3254,0.3203,0.3201,0.3199,0.3187,0.3184,0,0,0,0,0,0.2464,0.2518,0.2611,0.2657,0.2688,0.2765,0.2801,0.2842,0.2911,0.2938,0.3001,0.3067,0.3128,0.3167,0.3229,0.3287,0.3309,0.3308,0.3306,0.3303,0.3307,0.3342,0.3343,0.3336,0.3336,0.3336,0,0,0.2451,0.2517,0.2546,0.2646,0.27,0.2754,0.2787,0.2843,0.2884,0.2947,0.3014,0.3062,0.314,0.3203,0.3234,0.3244,0.3313,0.3304,0.3302,0.3307,0.3343,0.3344,0.3344,0.3337,0.3337,0.3337,0,0,0.2453,0.2508,0.2553,0.2606,0.2687,0.2738,0.2749,0.284,0.2874,0.2942,0.2991,0.3041,0.3144,0.3198,0.3239,0.3261,0.3296,0.3279,0.3267,0.3301,0.3301,0.3302,0.331,0.3313,0.3283,0.3282,0.3282,0,0.2426,0.2509,0.2572,0.2626,0.2668,0.2727,0.2773,0.2822,0.2918,0.2947,0.2955,0.3087,0.3144,0.322,0.3225,0.3256,0.3271,0.3269,0.3296,0.3297,0.3299,0.3308,0.3311,0.328,0.328,0.3281,0.3281,0,0.2471,0.2528,0.2555,0.2647,0.2692,0.2742,0.2813,0.2852,0.2889,0.2939,0.3008,0.3078,0.3154,0.3175,0.3212,0.3258,0.3261,0.3282,0.3297,0.3296,0.3306,0.331,0.3276,0.3277,0.3278,0.3279,0,0,0.2438,0.2564,0.2572,0.2615,0.2708,0.2754,0.2806,0.288,0.2912,0.2977,0.3023,0.3109,0.3129,0.3175,0.3219,0.3248,0.3262,0.3266,0.3269,0.3263,0.3316,0.33,0.3303,0.3284,0.3285,0.3286,0.331,0,0.2453,0.255,0.2608,0.2681,0.2734,0.2791,0.2837,0.2899,0.2947,0.3,0.3054,0.3114,0.3135,0.3164,0.3195,0.3253,0.3273,0.3252,0.3329,0.3331,0.3308,0.3308,0.3292,0.3311,0.3314,0.3315,0.3315,0,0.2485,0.2548,0.2625,0.2713,0.2738,0.2778,0.2851,0.29,0.2972,0.3006,0.3057,0.3101,0.3159,0.3168,0.3249,0.3234,0.3268,0.3302,0.3304,0.3314,0.3323,0.3319,0.3318,0.3321,0.3322,0.3321,0.3321,0,0.2453,0.2557,0.2617,0.2652,0.2755,0.2782,0.2826,0.2898,0.2939,0.3003,0.3031,0.3101,0.3139,0.3192,0.3254,0.3255,0.3329,0.3344,0.3359,0.3357,0.3372,0.3371,0.3378,0.3393,0.3393,0.3393,0.3393,0,0.2465,0.251,0.2604,0.2641,0.2694,0.2761,0.2812,0.2861,0.2924,0.2972,0.3025,0.3069,0.3147,0.3201,0.3249,0.3309,0.3326,0.3355,0.3368,0.3351,0.3347,0.3375,0.3376,0.3394,0.3394,0.3394,0.3393,0,0.2438,0.2503,0.2572,0.2665,0.2689,0.2724,0.2803,0.2841,0.2892,0.2952,0.297,0.305,0.3116,0.3183,0.3272,0.3304,0.3363,0.338,0.3339,0.3346,0.3357,0.3355,0.3383,0.3391,0.34,0.34,0.3399,0,0.2441,0.2478,0.2574,0.261,0.2653,0.271,0.2752,0.2819,0.2861,0.2946,0.2974,0.3044,0.3103,0.3206,0.3272,0.334,0.336,0.3365,0.337,0.3352,0.336,0.3358,0.3362,0.3362,0.3362,0.3361,0.3361,0,0.2441,0.2471,0.253,0.26,0.2649,0.2707,0.2767,0.2794,0.2873,0.2917,0.2985,0.3031,0.3122,0.319,0.3267,0.3313,0.335,0.3359,0.3366,0.3349,0.3324,0.3339,0.3333,0.3358,0.3358,0.3359,0.3359,0.3359,0.243,0.2465,0.2538,0.2602,0.2654,0.271,0.275,0.2806,0.2864,0.2943,0.2979,0.3047,0.3119,0.3225,0.327,0.3325,0.3335,0.3345,0.3348,0.335,0.3346,0.3315,0.3339,0.3339,0.3339,0.334,0.334,0,0.2432,0.2482,0.254,0.2623,0.2673,0.2703,0.2772,0.2812,0.2871,0.2935,0.2992,0.307,0.3137,0.3208,0.328,0.3309,0.3328,0.3326,0.3325,0.3335,0.3333,0.332,0.3309,0.3309,0.3309,0.3309,0.3309,0.3309,0.2439,0.2501,0.254,0.2627,0.2677,0.2745,0.2781,0.2832,0.2883,0.2968,0.3024,0.307,0.3137,0.3213,0.3276,0.3296,0.332,0.3312,0.3336,0.3333,0.3335,0.3337,0.3325,0.3317,0.3317,0.3334,0.3335,0.3335]},{"header":{"parameterUnit":"m.s-1","parameterCategory":1,"la1":30.2991,"la2":30.254,"lo1":-89.0895,"lo2":-89.0444,"dy":0.0017,"dx":0.0017,"nx":28,"ny":28,"refTime":"2025-05-16T09:00:00:Z","depth":0,"parameterNumber":3,"parameterNumberName":"V-component_of_WINDS"},"data":[0,0,0,0,0,0,0,0,0,0,0,0,0,0,0,0,0,0,0,0,0,0,0,0,0,0,0,0,0,0,0,0,0,0,0,0,0,0,0,0,0,0,0,0,0,0,0,0,0,0,0,0,0,0,0,0,0,0,4.6977,4.6977,0,4.6973,4.6973,4.6973,4.694,4.6939,4.6938,4.6937,4.6931,4.6931,4.6932,0,0,0,0,0,0,0,0,0,0,0,0,0,4.6958,4.6958,4.6977,4.6977,4.6977,4.6973,4.6973,4.6973,4.694,4.6939,4.6938,4.6937,4.6931,4.6931,4.6932,0,0,0,0,0,0,0,0,0,0,0,0,0,4.6961,4.6958,4.6977,4.6961,4.6959,4.6973,4.6973,4.6973,4.694,4.6939,4.6938,4.6937,4.693,4.6931,4.6932,4.6961,0,0,4.6935,4.6935,0,0,0,0,0,0,0,0,4.6961,4.6962,4.6963,4.6962,4.696,4.6956,4.6963,4.6969,4.694,4.6947,4.6937,4.6936,4.694,4.694,4.6942,4.6961,4.696,4.6935,4.6935,4.6936,4.6936,0,0,0,0,0,0,0,4.6961,4.6962,4.6975,4.6963,4.6961,4.6953,4.6952,4.6964,4.695,4.6947,4.6944,4.6944,4.6939,4.6941,4.6941,4.696,4.6935,4.6935,4.6936,4.6936,4.7005,4.7006,0,0,0,0,0,0,4.6963,4.6962,4.6976,4.6975,4.6958,4.6954,4.6953,4.6958,4.695,4.6948,4.6945,4.6943,4.694,4.694,4.6941,4.6976,4.6936,4.6936,4.6937,4.7003,4.7005,4.7006,0,0,0,0,0,0,4.6963,4.6964,4.6976,4.6968,4.6969,4.6956,4.6962,4.6959,4.6961,4.6949,4.6946,4.695,4.6939,4.694,4.6957,4.6975,4.6937,4.6937,4.7002,4.7004,4.7006,4.7045,0,0,0,0,0,0,4.6962,4.6965,4.6975,4.6968,4.6969,4.6992,4.6963,4.696,4.6963,4.6959,4.6953,4.695,4.6938,4.6956,4.6958,4.6975,4.6938,4.7,4.7003,4.7005,4.7042,4.7048,4.7053,0,0,0,0,0,4.6962,4.6986,4.6976,4.6978,4.6983,4.6993,4.6994,4.698,4.6964,4.6975,4.6968,4.6951,4.6972,4.6958,4.696,4.6978,4.6999,4.7002,4.7005,4.7039,4.7046,4.7053,0,0,0,0,0,0,4.6994,4.6984,4.6974,4.6996,4.6996,4.6988,4.7001,4.6988,4.6991,4.6988,4.6969,4.6968,4.6989,4.6985,4.6968,4.7006,4.6983,4.6986,4.7008,4.7015,4.7021,4.7021,4.6939,0,0,0,0,0,4.7004,4.7014,4.7005,4.7026,4.7026,4.7014,4.7018,4.7007,4.7006,4.7005,4.6999,4.6998,4.7005,4.7009,4.7015,4.7041,4.7039,4.7054,4.706,4.7064,4.7068,4.7083,4.709,4.7016,4.7016,4.7016,0,0,4.7024,4.702,4.7027,4.7032,4.7031,4.7041,4.7014,4.7026,4.7034,4.7007,4.7023,4.7019,4.7016,4.7039,4.7048,4.7036,4.7088,4.7068,4.7072,4.7073,4.7087,4.7094,4.71,4.7018,4.7018,4.7018,0,0,4.7067,4.7065,4.7083,4.7083,4.7081,4.7073,4.7078,4.7072,4.7068,4.7084,4.7065,4.7074,4.7085,4.7085,4.7086,4.7131,4.7116,4.7133,4.7163,4.7178,4.7183,4.7188,4.7206,4.7212,4.7137,4.7137,4.7137,0,4.7093,4.7109,4.7094,4.7108,4.7111,4.7088,4.7107,4.7107,4.7107,4.7109,4.7096,4.7112,4.7108,4.7131,4.7142,4.7143,4.7148,4.7134,4.7184,4.7189,4.7193,4.721,4.7216,4.7139,4.7139,4.7139,4.7138,0,4.7141,4.7152,4.7167,4.7169,4.7174,4.719,4.7177,4.7184,4.7173,4.7167,4.7184,4.718,4.7185,4.7189,4.7178,4.721,4.7203,4.7187,4.7163,4.7203,4.7218,4.7224,4.7142,4.7141,4.7141,4.714,0,0,4.7203,4.7199,4.7205,4.7206,4.7204,4.7212,4.7227,4.7233,4.724,4.724,4.7254,4.7265,4.725,4.7252,4.7241,4.7254,4.7291,4.7236,4.7236,4.7248,4.7329,4.7342,4.7349,4.7281,4.7282,4.7283,4.7329,0,4.7246,4.7273,4.7261,4.7289,4.73,4.728,4.7293,4.7293,4.7288,4.7296,4.7289,4.7298,4.7278,4.7279,4.7291,4.7284,4.7308,4.7281,4.7293,4.7294,4.7296,4.7357,4.737,4.7415,4.7335,4.7336,4.7337,0,4.7299,4.7304,4.7334,4.7331,4.7336,4.7348,4.7353,4.7361,4.7361,4.7356,4.7359,4.7345,4.736,4.7337,4.7358,4.734,4.7344,4.7342,4.7343,4.7345,4.7319,4.7361,4.7428,4.7435,4.7346,4.7345,4.7344,0,4.7344,4.7358,4.7378,4.738,4.7377,4.7386,4.7385,4.7384,4.7389,4.7393,4.7396,4.7402,4.7405,4.741,4.7398,4.7382,4.7422,4.7396,4.7419,4.7419,4.7429,4.7428,4.7498,4.7429,4.7429,4.7429,4.7429,0,4.7394,4.7413,4.7399,4.7411,4.7433,4.7419,4.744,4.7437,4.7436,4.7448,4.7429,4.744,4.7424,4.7433,4.7424,4.7444,4.7445,4.7442,4.7439,4.7444,4.7445,4.7448,4.7445,4.7431,4.7431,4.743,4.743,0,4.7448,4.7439,4.746,4.7456,4.7455,4.7471,4.7468,4.7479,4.7473,4.7488,4.749,4.748,4.7491,4.748,4.7488,4.7482,4.751,4.7502,4.751,4.7509,4.7532,4.7531,4.7607,4.7617,4.7541,4.7542,4.7542,0,4.748,4.7495,4.7493,4.7501,4.7501,4.7512,4.7518,4.7504,4.7511,4.7513,4.7524,4.7533,4.754,4.7558,4.7551,4.7558,4.7552,4.7578,4.7553,4.7558,4.7554,4.7554,4.7556,4.7584,4.7584,4.7585,4.7586,0,4.754,4.7535,4.7544,4.7553,4.756,4.7565,4.7569,4.7576,4.7562,4.757,4.7582,4.7587,4.7597,4.7607,4.7613,4.7611,4.7597,4.7594,4.76,4.7605,4.761,4.761,4.7526,4.7592,4.7592,4.7591,4.7591,4.7591,4.7585,4.7598,4.76,4.7611,4.7613,4.7617,4.7629,4.7625,4.7634,4.7642,4.7633,4.7648,4.7648,4.7654,4.7655,4.7666,4.7654,4.7662,4.7665,4.7667,4.7672,4.7608,4.7666,4.7666,4.7666,4.7666,4.7665,0,4.7646,4.7646,4.7656,4.7664,4.7673,4.7659,4.7663,4.7671,4.7684,4.7686,4.7694,4.7707,4.7717,4.7712,4.772,4.773,4.7724,4.7733,4.7733,4.7733,4.768,4.7675,4.7738,4.7738,4.7738,4.7738,4.7738,4.7738,4.7678,4.77,4.7696,4.7719,4.7719,4.7734,4.7737,4.7742,4.7743,4.776,4.7768,4.7765,4.7764,4.7773,4.7781,4.7779,4.7784,4.7796,4.7792,4.7743,4.7736,4.7729,4.7725,4.7797,4.7797,4.7844,4.7844,4.7844]}]]